Weather History for Portland, ME

Change the Weather History Date:

Sunday, November 10, 2013

  Actual Average Record
Temperature  
Mean Temperature 40 °F 41 °F  
Max Temperature 44 °F 50 °F 64 °F (2009)
Min Temperature 35 °F 33 °F 15 °F (1956)
Degree Days  
Heating Degree Days 25 24  
Month to date heating degree days 211 224  
Since 1 July heating degree days 843 948  
Cooling Degree Days 0 0  
Month to date cooling degree days 0 0  
Year to date cooling degree days 454 359  
Moisture  
Dew Point 35 °F    
Average Humidity 76    
Maximum Humidity 92    
Minimum Humidity 59    
Precipitation  
Precipitation 0.05 in 0.16 in 4.70 in (1990)
Month to date precipitation 0.23 1.69  
Year to date precipitation 36.25 39.99  
Snow  
Snow 0.00 in 0.10 in 6.20 in (1898)
Month to date snowfall 0.0 0.3  
Since 1 July snowfall 0.0 0.3  
Since 1 September snowfall 0.0 0.3  
Snow Depth 0.00 in    
Sea Level Pressure  
Sea Level Pressure 29.82 in    
Wind  
Wind Speed 5 mph (WSW)    
Max Wind Speed 15 mph    
Max Gust Speed 21 mph    
Visibility 10 miles    
Events Rain    
T = Trace of Precipitation, MM = Missing Value Source: NWS Daily Summary

Daily Weather History Graph

Daily Weather History Graph

Search for Another Location

Airport:

Trip Planner

Search our weather history database for the weather conditions in past years. The results will help you decide how hot, cold, wet, or windy it might be!

Date:

Astronomy

Nov. 10, 2013 Rise Set
Actual Time 6:29 AM EST 4:20 PM EST
Civil Twilight 5:58 AM EST 4:51 PM EST
Nautical Twilight 5:24 AM EST 5:25 PM EST
Astronomical Twilight 4:50 AM EST 5:59 PM EST
Moon 12:36 PM EST (11/10) No Moon Set
Length of Visible Light 10h 52m
Length of Day
9h 51m
First Quarter, 55% of the Moon is Illuminated
Nov 10
First Quarter
Nov 17
Full
Nov 25
Last Quarter
Dec 2
New
Dec 9
First Quarter

Hourly Weather History & Observations

Time (EST) Temp. Windchill Dew Point Humidity Pressure Visibility Wind Dir Wind Speed Gust Speed Precip Events Conditions
12:51 AM 39.0 °F 35.7 °F 28.9 °F 67% 30.02 in 10.0 mi East 4.6 mph - N/A   Overcast
1:51 AM 37.0 °F 34.5 °F 28.9 °F 73% 29.99 in 10.0 mi SE 3.5 mph - N/A   Partly Cloudy
2:51 AM 39.0 °F 36.8 °F 32.0 °F 76% 29.96 in 10.0 mi ESE 3.5 mph - N/A   Overcast
3:51 AM 39.0 °F 34.8 °F 33.1 °F 79% 29.94 in 10.0 mi WSW 5.8 mph - 0.00 in Rain Light Rain
4:09 AM 37.0 °F 31.6 °F 32.0 °F 82% 29.93 in 10.0 mi WNW 6.9 mph - 0.00 in   Overcast
4:51 AM 37.0 °F 34.5 °F 33.1 °F 86% 29.93 in 10.0 mi West 3.5 mph - 0.00 in Rain Light Rain
5:15 AM 36.0 °F 33.3 °F 32.0 °F 86% 29.92 in 10.0 mi West 3.5 mph - 0.00 in   Overcast
5:51 AM 36.0 °F - 33.1 °F 89% 29.91 in 9.0 mi Calm Calm - 0.01 in Rain Light Rain
6:43 AM 36.0 °F - 34.0 °F 93% 29.88 in 8.0 mi Calm Calm - 0.01 in Rain Light Rain
6:51 AM 36.0 °F - 34.0 °F 93% 29.88 in 5.0 mi Calm Calm - 0.02 in Rain Light Rain
7:26 AM 36.0 °F - 35.1 °F 97% 29.88 in 9.0 mi Calm Calm - 0.02 in Rain Light Rain
7:51 AM 37.0 °F - 35.1 °F 93% 29.87 in 10.0 mi Calm Calm - 0.02 in   Overcast
8:51 AM 39.9 °F - 37.0 °F 89% 29.85 in 9.0 mi Calm Calm - N/A   Overcast
9:51 AM 39.9 °F 37.8 °F 36.0 °F 86% 29.83 in 10.0 mi WSW 3.5 mph - N/A   Overcast
10:51 AM 41.0 °F 39.0 °F 37.0 °F 86% 29.80 in 9.0 mi WNW 3.5 mph - N/A   Overcast
11:51 AM 42.1 °F 40.2 °F 39.0 °F 89% 29.75 in 10.0 mi West 3.5 mph - N/A   Overcast
12:51 PM 43.0 °F 41.3 °F 39.0 °F 86% 29.74 in 10.0 mi West 3.5 mph - 0.00 in   Overcast
1:34 PM 43.0 °F 41.3 °F 37.9 °F 82% 29.72 in 10.0 mi West 3.5 mph - N/A   Mostly Cloudy
1:51 PM 43.0 °F 41.3 °F 37.9 °F 82% 29.73 in 10.0 mi West 3.5 mph - N/A   Mostly Cloudy
2:51 PM 43.0 °F 40.3 °F 39.0 °F 86% 29.73 in 10.0 mi SSW 4.6 mph - N/A   Overcast
3:51 PM 43.0 °F 41.3 °F 39.9 °F 89% 29.72 in 9.0 mi SSW 3.5 mph - N/A   Overcast
4:51 PM 43.0 °F - 39.9 °F 89% 29.73 in 10.0 mi Calm Calm - N/A   Overcast
5:51 PM 43.0 °F 38.2 °F 37.9 °F 82% 29.73 in 10.0 mi WSW 8.1 mph - N/A   Overcast
6:51 PM 43.0 °F 36.8 °F 36.0 °F 76% 29.73 in 10.0 mi West 11.5 mph - N/A   Clear
7:51 PM 42.1 °F 36.1 °F 36.0 °F 79% 29.73 in 10.0 mi West 10.4 mph - N/A   Clear
8:51 PM 42.1 °F 35.2 °F 36.0 °F 79% 29.73 in 10.0 mi WSW 12.7 mph - N/A   Clear
9:51 PM 41.0 °F 35.8 °F 35.1 °F 79% 29.74 in 10.0 mi West 8.1 mph - N/A   Clear
10:51 PM 41.0 °F 35.2 °F 35.1 °F 79% 29.74 in 10.0 mi West 9.2 mph - N/A   Mostly Cloudy
11:51 PM 42.1 °F 34.9 °F 34.0 °F 73% 29.75 in 10.0 mi West 13.8 mph - N/A   Clear